Precipitable_Water
1.14 1.12 1.09 1.07 1.06 1.06 1.04 1.00 0.95 0.88 0.85 0.84 0.81 0.83 0.84 0.86 0.87 0.86 0.87 0.89 0.89 0.89 0.89 0.89 0.90 0.90 0.93 0.97 1.00 1.01 1.02 1.04 1.08 1.14 1.17 1.22 1.23 1.24 1.23 1.25 1.25 1.23
1.11 1.11 1.09 1.09 1.08 1.08 1.05 1.00 0.93 0.88 0.85 0.85 0.85 0.85 0.85 0.83 0.85 0.87 0.87 0.86 0.86 0.85 0.85 0.85 0.85 0.87 0.91 0.96 0.99 1.00 1.00 1.04 1.07 1.16 1.15 1.17 1.20 1.25 1.25 1.26 1.27 1.27
1.13 1.11 1.10 1.08 1.06 1.03 0.99 0.96 0.92 0.89 0.86 0.86 0.86 0.85 0.83 0.86 0.86 0.86 0.85 0.82 0.79 0.79 0.80 0.82 0.85 0.89 0.93 0.96 0.98 0.98 0.98 1.01 1.04 1.11 1.16 1.17 1.20 1.22 1.27 1.31 1.29 1.30
1.11 1.11 1.10 1.08 1.04 0.99 0.97 0.93 0.90 0.88 0.87 0.84 0.82 0.84 0.85 0.85 0.83 0.81 0.79 0.78 0.78 0.79 0.81 0.83 0.86 0.90 0.93 0.95 0.97 0.98 1.01 1.04 1.08 1.12 1.15 1.19 1.21 1.23 1.27 1.32 1.33 1.33
1.10 1.09 1.07 1.04 1.01 0.98 0.94 0.89 0.85 0.85 0.83 0.82 0.82 0.84 0.83 0.81 0.78 0.76 0.76 0.77 0.78 0.79 0.81 0.82 0.86 0.90 0.93 0.96 0.98 0.97 1.01 1.04 1.09 1.11 1.14 1.16 1.21 1.21 1.25 1.30 1.30 1.29
1.08 1.06 1.03 0.99 0.96 0.92 0.88 0.85 0.84 0.83 0.81 0.79 0.80 0.82 0.79 0.78 0.74 0.74 0.75 0.75 0.77 0.78 0.78 0.81 0.84 0.89 0.93 0.95 0.97 0.99 1.01 1.03 1.08 1.09 1.13 1.16 1.20 1.25 1.27 1.29 1.30 1.29
1.02 1.01 0.97 0.95 0.91 0.89 0.85 0.84 0.84 0.82 0.81 0.80 0.80 0.77 0.76 0.74 0.73 0.74 0.75 0.75 0.76 0.77 0.77 0.80 0.83 0.86 0.92 0.94 0.96 0.97 1.01 1.03 1.08 1.12 1.12 1.15 1.20 1.23 1.28 1.29 1.29 1.28
0.99 0.95 0.93 0.90 0.87 0.85 0.83 0.82 0.81 0.80 0.79 0.78 0.74 0.74 0.74 0.73 0.72 0.73 0.74 0.76 0.76 0.77 0.80 0.83 0.85 0.87 0.90 0.93 0.93 0.95 0.99 1.05 1.08 1.11 1.13 1.15 1.17 1.18 1.25 1.31 1.32 1.29
0.93 0.90 0.88 0.85 0.83 0.82 0.81 0.80 0.79 0.77 0.77 0.73 0.72 0.72 0.73 0.72 0.72 0.73 0.75 0.76 0.77 0.79 0.81 0.84 0.86 0.88 0.91 0.92 0.94 0.96 0.98 1.03 1.08 1.11 1.13 1.15 1.16 1.18 1.22 1.28 1.30 1.30
0.88 0.87 0.84 0.83 0.80 0.80 0.78 0.77 0.76 0.75 0.75 0.74 0.73 0.74 0.72 0.74 0.76 0.76 0.76 0.77 0.78 0.80 0.82 0.84 0.86 0.89 0.91 0.94 0.95 0.97 0.98 1.01 1.07 1.10 1.13 1.15 1.17 1.19 1.23 1.26 1.29 1.29
0.84 0.83 0.81 0.80 0.79 0.78 0.76 0.76 0.76 0.76 0.77 0.75 0.75 0.74 0.74 0.74 0.75 0.77 0.77 0.78 0.78 0.80 0.82 0.84 0.86 0.89 0.92 0.94 0.97 1.00 1.01 1.03 1.06 1.10 1.12 1.14 1.17 1.20 1.23 1.25 1.28 1.31
0.81 0.80 0.79 0.79 0.78 0.76 0.76 0.76 0.77 0.76 0.76 0.76 0.76 0.73 0.74 0.75 0.75 0.77 0.78 0.79 0.82 0.84 0.85 0.86 0.89 0.91 0.93 0.94 0.96 0.99 1.01 1.02 1.05 1.07 1.11 1.14 1.17 1.19 1.22 1.25 1.26 1.28
0.78 0.79 0.79 0.78 0.77 0.77 0.78 0.78 0.77 0.77 0.76 0.74 0.76 0.75 0.75 0.75 0.77 0.78 0.81 0.82 0.84 0.85 0.86 0.88 0.90 0.92 0.92 0.93 0.95 0.96 0.97 0.98 1.01 1.04 1.08 1.12 1.15 1.16 1.18 1.21 1.25 1.27
0.80 0.80 0.79 0.79 0.79 0.79 0.78 0.79 0.78 0.77 0.76 0.76 0.77 0.76 0.76 0.77 0.78 0.79 0.82 0.85 0.85 0.86 0.88 0.90 0.90 0.90 0.90 0.91 0.93 0.94 0.95 0.96 0.98 1.01 1.05 1.08 1.11 1.12 1.14 1.15 1.18 1.24
0.81 0.81 0.81 0.80 0.80 0.79 0.79 0.79 0.78 0.77 0.77 0.77 0.77 0.78 0.79 0.80 0.82 0.83 0.84 0.84 0.86 0.88 0.88 0.88 0.86 0.85 0.86 0.88 0.89 0.91 0.93 0.93 0.96 0.99 1.01 1.03 1.06 1.09 1.09 1.10 1.12 1.16
0.81 0.81 0.80 0.81 0.79 0.78 0.79 0.79 0.78 0.78 0.78 0.78 0.78 0.80 0.81 0.83 0.84 0.84 0.84 0.84 0.83 0.84 0.84 0.83 0.82 0.83 0.84 0.86 0.87 0.88 0.89 0.91 0.94 0.95 0.97 0.99 1.01 1.02 1.02 1.05 1.08 1.12
0.81 0.81 0.81 0.79 0.79 0.79 0.79 0.79 0.79 0.79 0.78 0.78 0.79 0.81 0.81 0.83 0.85 0.83 0.81 0.80 0.79 0.78 0.78 0.79 0.79 0.81 0.82 0.84 0.85 0.87 0.88 0.88 0.89 0.91 0.93 0.95 0.96 0.96 0.94 0.98 1.04 1.09
0.81 0.81 0.80 0.79 0.79 0.79 0.79 0.80 0.80 0.80 0.79 0.79 0.80 0.80 0.82 0.84 0.83 0.81 0.80 0.79 0.79 0.79 0.78 0.78 0.79 0.80 0.81 0.83 0.84 0.86 0.87 0.88 0.89 0.89 0.89 0.90 0.92 0.93 0.94 0.96 0.99 1.03
0.82 0.80 0.79 0.79 0.79 0.80 0.81 0.81 0.80 0.80 0.79 0.79 0.79 0.81 0.82 0.81 0.79 0.79 0.78 0.79 0.79 0.78 0.78 0.79 0.79 0.81 0.82 0.83 0.85 0.86 0.87 0.87 0.86 0.86 0.85 0.86 0.88 0.90 0.91 0.93 0.96 0.98
0.82 0.80 0.79 0.79 0.80 0.80 0.80 0.80 0.80 0.79 0.79 0.79 0.79 0.79 0.78 0.77 0.78 0.77 0.78 0.78 0.79 0.79 0.78 0.79 0.80 0.81 0.81 0.82 0.83 0.84 0.84 0.85 0.84 0.85 0.85 0.85 0.86 0.86 0.87 0.88 0.91 0.92
0.81 0.80 0.79 0.79 0.79 0.80 0.79 0.79 0.78 0.78 0.78 0.79 0.78 0.77 0.77 0.77 0.77 0.77 0.78 0.79 0.80 0.80 0.79 0.78 0.80 0.81 0.82 0.82 0.83 0.83 0.84 0.84 0.84 0.84 0.83 0.83 0.84 0.85 0.86 0.87 0.88 0.90
0.81 0.80 0.79 0.79 0.78 0.78 0.78 0.77 0.77 0.77 0.76 0.78 0.78 0.78 0.78 0.78 0.78 0.78 0.77 0.77 0.79 0.79 0.78 0.77 0.78 0.80 0.80 0.80 0.81 0.81 0.82 0.82 0.82 0.81 0.79 0.79 0.80 0.82 0.83 0.85 0.86 0.87
0.82 0.81 0.79 0.78 0.78 0.77 0.75 0.75 0.75 0.75 0.76 0.78 0.77 0.77 0.76 0.76 0.76 0.77 0.77 0.77 0.77 0.78 0.77 0.77 0.78 0.79 0.79 0.79 0.79 0.79 0.79 0.79 0.79 0.79 0.78 0.77 0.78 0.79 0.80 0.81 0.83 0.84
0.83 0.82 0.79 0.78 0.78 0.76 0.75 0.75 0.75 0.75 0.75 0.77 0.75 0.75 0.74 0.74 0.75 0.75 0.76 0.77 0.77 0.77 0.78 0.76 0.77 0.78 0.78 0.78 0.78 0.78 0.78 0.76 0.77 0.76 0.76 0.76 0.76 0.78 0.79 0.79 0.80 0.80
0.84 0.82 0.80 0.79 0.77 0.76 0.76 0.74 0.73 0.74 0.75 0.76 0.75 0.74 0.73 0.73 0.73 0.73 0.73 0.74 0.75 0.76 0.77 0.75 0.75 0.76 0.77 0.78 0.79 0.78 0.78 0.77 0.76 0.74 0.72 0.73 0.74 0.75 0.77 0.77 0.78 0.78
0.84 0.82 0.81 0.79 0.78 0.77 0.76 0.75 0.75 0.74 0.75 0.75 0.74 0.74 0.73 0.73 0.73 0.72 0.71 0.72 0.73 0.73 0.73 0.74 0.72 0.73 0.74 0.76 0.77 0.77 0.77 0.76 0.75 0.71 0.69 0.70 0.71 0.71 0.70 0.72 0.74 0.75
Wind_Speed
10 10 10 10 11 12 13 15 16 17 17 17 17 17 17 17 18 18 19 19 19 19 19 19 20 20 21 22 22 23 24 24 24 24 24 24 24 24 24 23 22 22
10 11 11 12 12 13 14 15 16 17 17 17 17 17 17 17 18 18 18 19 19 19 19 20 20 20 21 21 22 23 23 23 23 23 23 23 23 23 22 22 20 19
11 11 12 12 13 14 15 16 17 17 17 17 17 17 17 17 18 18 19 19 19 19 19 20 20 20 21 21 22 22 23 23 23 22 22 22 22 21 20 20 18 17
11 12 12 13 13 14 15 16 17 17 17 17 16 16 16 17 18 18 19 19 19 19 19 19 20 20 20 21 21 22 22 22 22 22 21 21 21 20 19 18 17 16
12 12 13 13 14 15 15 16 16 16 16 16 16 16 16 17 18 18 18 19 19 19 19 19 19 20 20 21 21 21 21 21 21 21 21 20 20 19 17 17 16 15
12 13 13 14 14 15 15 15 16 16 16 16 16 16 17 17 17 18 18 18 18 18 19 19 19 19 20 20 21 21 21 21 21 20 20 20 19 18 17 17 16 15
13 13 13 14 14 15 15 15 15 16 16 16 16 16 17 17 17 18 18 18 18 18 18 19 19 19 20 20 20 20 20 20 20 20 19 19 19 18 17 17 16 16
13 13 13 14 14 14 14 15 15 15 16 16 16 16 17 17 17 18 18 18 18 18 18 18 19 19 19 20 20 20 20 20 19 19 19 18 18 18 17 16 16 16
12 12 13 13 13 14 14 14 15 15 16 16 16 16 16 17 17 17 17 17 18 18 18 18 18 19 19 19 19 19 19 19 19 19 18 18 17 17 17 16 15 15
12 12 12 12 13 13 13 14 15 15 15 16 15 15 16 16 16 17 17 17 17 17 17 17 18 18 18 18 18 18 18 18 18 18 18 17 17 17 17 16 15 14
11 11 12 12 12 12 13 14 14 15 15 15 15 15 15 16 16 16 16 17 16 16 16 17 17 18 17 17 17 17 17 18 18 18 18 17 17 17 17 16 15 15
11 11 11 11 11 12 13 13 14 14 14 14 14 15 15 15 16 16 15 15 16 16 16 16 17 17 17 17 17 17 17 17 17 17 17 17 17 17 16 16 16 15
10 10 10 10 11 11 12 13 13 14 14 14 14 14 15 15 15 15 14 15 15 16 16 16 16 17 17 17 17 17 17 16 16 16 16 16 16 16 16 16 16 15
10 9 10 10 10 11 12 12 13 13 13 13 14 14 14 14 14 14 14 14 15 16 16 16 16 16 17 17 16 16 16 16 16 16 15 15 15 15 16 16 15 15
9 9 9 10 10 11 11 12 12 13 13 13 13 13 13 13 13 13 14 15 15 15 15 15 16 16 16 16 16 16 16 16 16 16 15 15 15 15 15 15 15 15
9 9 9 10 10 11 11 12 12 12 12 12 12 12 12 13 13 13 14 14 14 14 15 15 15 15 16 16 15 15 15 15 15 15 15 15 15 16 15 15 15 14
9 9 9 10 10 10 11 11 11 11 11 11 11 12 12 12 13 13 13 13 14 14 15 15 15 15 15 15 14 14 14 14 15 15 15 15 15 15 15 15 15 14
9 10 10 10 10 10 11 11 10 10 11 11 11 11 12 12 13 13 12 13 13 14 14 14 14 14 14 14 14 14 14 14 15 15 15 15 15 15 14 14 14 14
10 10 10 10 10 10 10 10 10 10 11 11 11 11 12 12 12 12 12 13 13 13 14 14 13 14 14 13 13 14 14 14 14 14 14 14 14 14 14 13 13 13
10 10 10 10 9 9 9 10 10 11 11 11 11 12 12 12 12 12 12 12 12 12 13 13 13 14 14 13 13 13 13 13 12 12 13 13 13 14 13 13 13 13
10 10 9 9 9 9 9 10 10 11 11 11 11 12 12 12 12 12 12 12 11 11 12 12 12 13 13 13 13 13 13 12 11 11 12 12 13 13 13 13 13 13
10 10 9 9 9 9 9 10 10 11 11 11 11 11 11 11 11 11 11 11 11 11 11 11 12 13 13 13 13 13 12 11 11 11 11 12 12 13 13 13 13 12
10 9 9 9 9 9 9 10 10 10 11 11 11 11 11 11 10 10 10 10 10 11 11 11 11 12 12 12 12 12 11 11 11 10 11 11 12 12 12 12 12 12
10 9 9 9 9 10 10 10 10 10 10 10 10 10 10 10 9 9 9 10 10 10 11 11 11 11 12 12 12 12 11 10 10 9 10 11 11 11 11 11 12 12
9 9 9 9 9 9 9 9 9 9 9 9 9 9 9 9 8 9 9 9 10 10 10 10 10 11 11 11 11 11 10 9 9 9 9 10 10 11 11 11 11 12
9 9 9 9 9 9 9 8 8 8 8 8 8 8 8 8 8 8 8 9 9 9 10 10 10 10 10 11 10 10 10 9 9 9 9 9 10 10 10 11 11 11
Wind_Direction
258 267 273 279 286 292 297 301 303 305 307 308 307 306 306 307 308 309 309 309 310 311 311 312 312 312 312 312 313 313 313 313 313 313 312 311 310 308 305 303 300 294
262 270 275 280 287 293 298 301 304 306 308 308 308 306 306 307 309 309 309 309 310 311 312 313 313 313 313 313 314 315 315 315 315 315 314 313 312 310 308 306 304 299
265 271 276 282 288 294 298 302 305 307 309 309 307 306 306 307 309 310 310 309 309 311 313 314 314 314 315 315 316 316 316 316 316 316 315 315 314 312 312 310 305 301
265 271 276 282 287 293 298 302 306 308 310 310 307 306 306 307 309 310 310 310 310 312 314 315 315 316 317 318 318 318 318 317 318 317 317 317 316 313 313 313 308 302
265 269 274 280 287 293 298 303 307 310 311 310 308 306 306 308 309 310 311 311 311 313 315 316 317 318 319 319 319 319 319 319 319 319 318 317 317 314 312 313 310 303
265 269 274 280 286 293 298 304 308 310 311 310 308 307 308 309 310 311 311 312 313 315 317 318 318 319 320 320 321 321 321 321 320 320 319 318 317 315 312 311 310 305
264 269 274 280 286 293 299 305 308 309 310 309 308 308 309 310 311 312 312 313 314 315 318 319 320 320 321 321 322 323 323 323 322 322 321 319 318 316 313 309 308 305
263 268 274 281 288 295 301 305 307 308 309 308 308 308 309 310 311 312 312 313 314 316 318 320 320 320 321 321 322 324 324 324 325 325 324 322 320 319 316 311 308 305
261 267 275 284 291 297 302 305 307 308 308 308 308 308 309 311 311 312 313 314 315 316 318 320 321 321 321 322 324 325 326 326 327 327 327 326 325 323 320 316 311 308
261 268 277 286 293 297 302 305 307 307 308 308 309 310 312 312 312 313 314 315 317 319 320 321 322 323 323 324 325 327 328 327 327 328 328 329 328 326 324 321 315 312
265 272 280 288 293 298 303 305 307 308 309 310 311 312 313 313 313 313 314 317 320 322 323 324 325 326 325 326 326 327 328 328 328 329 329 329 329 328 327 325 320 315
269 274 280 288 294 298 301 303 306 308 309 310 312 313 315 316 316 316 317 320 323 324 325 326 327 327 327 327 327 328 328 328 328 329 330 331 332 332 330 328 324 320
268 272 279 286 292 296 300 303 306 308 309 310 312 315 317 319 320 321 322 324 325 326 327 327 326 326 327 327 327 327 328 328 329 330 331 332 334 335 334 332 329 325
265 271 278 284 289 295 300 303 306 308 309 311 313 316 319 321 323 325 326 326 327 328 329 328 327 328 329 328 327 328 328 329 330 330 330 331 333 335 334 333 332 329
262 270 276 282 289 295 299 302 305 307 309 311 315 318 319 321 323 325 326 327 328 330 331 331 331 332 332 330 329 330 331 331 331 332 332 332 332 333 333 333 333 332
259 267 274 281 289 294 298 302 304 307 310 313 316 319 320 322 323 325 326 328 330 332 333 333 333 332 332 332 332 333 334 335 335 335 335 334 333 333 334 334 334 334
257 264 272 280 287 293 298 301 304 308 313 316 318 320 320 320 321 324 326 328 329 331 333 335 334 333 334 333 333 335 336 337 338 338 338 337 335 335 335 336 337 337
255 263 272 279 286 293 297 301 305 310 315 317 317 318 318 317 319 322 325 327 329 331 335 338 338 338 337 335 334 335 336 338 339 339 339 340 340 340 339 339 340 341
256 264 272 279 285 291 296 300 306 310 314 316 316 316 316 317 320 322 324 327 330 334 338 341 342 342 341 339 338 338 338 339 339 340 342 344 345 345 345 345 346 348
255 263 272 279 284 290 295 301 307 311 313 314 315 315 315 318 322 324 325 328 332 336 339 342 343 343 342 341 340 341 341 341 342 343 346 349 351 351 352 354 355 355
255 263 271 277 283 289 295 301 307 310 312 312 313 314 315 319 322 324 327 331 334 337 340 342 343 341 341 341 340 341 343 344 345 347 349 352 355 357 357 358 359 359
255 262 269 276 282 288 295 301 305 308 309 310 312 314 317 319 321 325 330 334 335 337 339 341 341 340 341 341 342 343 345 347 347 348 353 356 358 359 1 1 1 2
253 260 268 275 282 289 295 298 302 305 306 308 310 314 318 320 322 325 331 334 336 338 338 339 341 341 341 343 344 344 348 351 351 352 357 1 1 1 4 7 9 9
252 260 268 276 282 288 292 296 300 302 304 305 309 314 319 321 323 326 330 334 338 340 341 341 342 343 343 345 346 346 349 353 355 359 2 1 2 4 7 10 13 13
252 261 269 275 280 285 290 294 297 300 302 304 309 315 319 321 323 325 329 334 338 341 342 343 344 344 344 345 345 346 347 349 352 358 359 356 357 2 6 7 9 10
252 261 268 273 279 283 288 292 295 299 302 306 310 314 317 320 323 325 329 333 335 338 340 342 344 344 344 344 345 345 346 345 346 348 348 348 351 354 357 360 0 1